Regional Weather Roundup
Issued by NWS

Home | Current Version | Previous Version | Text Only | Print | Product List | Glossary On
Versions: 1 2 3 4 5 6 7 8 9 10 11 12 13 14 15 16 17 18 19 20 21 22 23 24 25 26 27 28 29 30 31 32 33 34 35 36 37 38 39 40 41 42 43 44 45 46 47 48 49 50
000
ASUS45 KABQ 262310
RWRNM
WEATHER ROUNDUP FOR NEW MEXICO
NATIONAL WEATHER SERVICE ALBUQUERQUE NM
500 PM MDT THU MAR 26 2015

NOTE: "FAIR" MEANS FEW OR NO CLOUDS BELOW 12,000 FEET AGL WITH NO
       SIGNIFICANT WEATHER OR OBSTRUCTIONS TO VISION.

      THIS PRODUCT IS RELEASED AS TWO VERSIONS.  ONE VERSION NEAR
      THE TOP OF THE HOUR CONTAINING PRELIMINARY DATA FROM ALBUQUERQUE
      AND OTHER STATIONS.  A FINAL VERSION WITH ADDITIONAL DATA IS
      ISSUED ABOUT 10 MINUTES AFTER THE HOUR.

NMZ501-503-504-510>518-270000-
NORTHWEST PLATEAU/NORTHCENTRAL MOUNTAINS

CITY           SKY/WX    TMP DP  RH WIND       PRES   REMARKS
FARMINGTON     SUNNY     64  14  14 W22G30    30.20F
LOS ALAMOS     SUNNY     54  14  20 E6        30.24F
SANTA FE       SUNNY     60  14  16 SW12G20   30.21F
TAOS           SUNNY     55  16  21 SW7G16    30.22F
ANGEL FIRE     FAIR      50  19  29 W18G24    30.24S

$$
NMZ402-403-502-505>509-270000-
WESTCENTRAL MOUNTAINS/SOUTHWEST MOUNTAINS

CITY           SKY/WX    TMP DP  RH WIND       PRES   REMARKS
GALLUP         SUNNY     65   9  11 CALM      30.25F
GRANTS         SUNNY     65   6   9 N20       30.24S
SILVER CITY    SUNNY     64  18  16 S5        30.25F

$$
NMZ407-409-411-412-270000-
SOUTHERN DESERTS

CITY           SKY/WX    TMP DP  RH WIND       PRES   REMARKS
LORDSBURG      FAIR      70  19  14 CALM      30.19F
DEMING         SUNNY     69  21  16 CALM      30.20F
LAS CRUCES     SUNNY     67  21  17 E5        30.20F
HOLLOMAN AFB   SUNNY     66  20  17 CALM      30.17F
ALAMOGORDO     SUNNY     66  19  16 S5        30.19F
T OR C         SUNNY     65  13  13 VRB3      30.19F

$$
NMZ519>523-270000-
CENTRAL VALLEYS/CENTRAL HIGHLANDS

CITY           SKY/WX    TMP DP  RH WIND       PRES   REMARKS
ALBUQUERQUE    MOSUNNY   62  18  18 SW6       30.22F
DOUBLE EAGLE   MOSUNNY   61  18  18 W5        30.23F
MORIARTY ARPT  FAIR      62  12  14 W9G17     30.23S
CLINES CORNERS SUNNY     59  11  15 W18       30.20F
BELEN          FAIR      64  16  16 CALM      30.21F
SOCORRO        FAIR      67  16  14 CALM      30.20F

$$
NMZ524>526-539-540-270000-
SOUTHCENTRAL MOUNTAINS

CITY           SKY/WX    TMP DP  RH WIND       PRES   REMARKS
RUIDOSO        SUNNY     57  16  19 N10G20    30.26S

$$
NMZ527>531-270000-
NORTHEAST HIGHLANDS/NORTHEAST PLAINS

CITY           SKY/WX    TMP DP  RH WIND       PRES   REMARKS
LAS VEGAS      SUNNY     58  16  19 SW14G22   30.17F
RATON          SUNNY     58  18  21 VRB7G18   30.14F
CLAYTON        SUNNY     62  18  18 NW14G22   30.13F

$$
NMZ532>537-270000-
EASTCENTRAL PLAINS

CITY           SKY/WX    TMP DP  RH WIND       PRES   REMARKS
TUCUMCARI      SUNNY     65  14  14 MISG      30.14F
CANNON AFB     NOT AVBL
CLOVIS AIRPORT SUNNY     61  19  20 W10G23    30.17F

$$
NMZ028-029-538-270000-
SOUTHEAST PLAINS

CITY           SKY/WX    TMP DP  RH WIND       PRES   REMARKS
ROSWELL        SUNNY     64  18  17 CALM      30.19F
ARTESIA        SUNNY     61  19  20 CALM      30.20F
CARLSBAD       SUNNY     64  20  18 NE3       30.19F
HOBBS          SUNNY     61  14  16 VRB6      30.21F


$$


USA.gov is the U.S. government's official web portal to all federal, state and local government web resources and services.